Simultaneous Nadir Overpasses (SNOs) Predictions

Prediction of SNOs between METOP-A and NOAA-19 Satellite Orbit:

Table of predicted SNOs for the next 14.0 days since TLE Epoch: 6/29/2018
Index Date (METOP-A) Time (METOP-A) Lat,Lon (METOP-A) SZA (METOP-A ) Date (NOAA-19) Time (NOAA-19) Lat,Lon (NOAA-19) SZA (NOAA-19 ) Distance(km) Time Diff (sec)
1 07/02/2018 17:50:41 78.92, -77.14 56.03 07/02/2018 17:49:35 78.90, -80.72 55.90 76.63 66
2 07/02/2018 18:41:29 -78.65, 88.53 124.29 07/02/2018 18:40:29 -78.63, 88.50 124.32 2.85 60
3 07/02/2018 19:32:10 78.63,-104.27 55.69 07/02/2018 19:31:28 78.62,-104.21 55.68 1.61 42
4 07/02/2018 20:22:51 -78.63, 63.06 124.31 07/02/2018 20:22:30 -78.62, 63.03 124.32 1.19 21
5 07/02/2018 21:13:32 78.61,-129.73 55.67 07/02/2018 21:13:29 78.62,-129.68 55.68 1.50 3
6 07/02/2018 22:04:13 -78.61, 37.60 124.33 07/02/2018 22:04:31 -78.62, 37.56 124.32 1.22 18
7 07/02/2018 22:54:54 78.59,-155.20 55.65 07/02/2018 22:55:30 78.61,-155.14 55.68 2.89 36
8 07/02/2018 23:45:35 -78.59, 12.13 124.35 07/02/2018 23:46:32 -78.61, 12.09 124.32 2.91 57
9 07/03/2018 00:36:16 78.57, 179.33 55.63 07/03/2018 00:37:30 78.57, 179.63 55.66 6.52 74
10 07/13/2018 14:50:27 -78.66, 146.24 123.07 07/13/2018 14:49:17 -78.66, 146.42 123.07 3.83 70
11 07/13/2018 15:41:07 78.66, -46.41 56.94 07/13/2018 15:40:19 78.67, -46.39 56.94 0.97 48
12 07/13/2018 16:31:48 -78.68, 121.01 123.04 07/13/2018 16:31:18 -78.66, 120.94 123.06 2.37 30
13 07/13/2018 17:22:29 78.64, -71.87 56.93 07/13/2018 17:22:20 78.67, -71.86 56.95 2.80 9
14 07/13/2018 18:13:10 -78.66, 95.54 123.06 07/13/2018 18:13:19 -78.65, 95.47 123.06 1.50 9
15 07/13/2018 19:03:50 78.66, -97.11 56.96 07/13/2018 19:04:20 78.63, -97.09 56.93 3.55 30
16 07/13/2018 19:54:32 -78.63, 70.07 123.07 07/13/2018 19:55:20 -78.65, 70.00 123.05 2.46 48
17 07/13/2018 20:45:12 78.64,-122.58 56.94 07/13/2018 20:46:21 78.62,-122.56 56.94 1.73 69




NCC Satellite Simultaneous Nadir Overpasses (SNOs) Prediction Service
